TIANLIAN 2-01

Last updated on Sun Apr 12 2026 00:02:55 GMT+0000 (Coordinated Universal Time)

1 44076U 19017A 26101.47406078 -.00000105 00000+0 00000+0 0 9990 2 44076 0.3664 82.5458 0001859 259.7610 105.0635 1.00272002 25985
UTC large
Height (km)
Speed (km/s)
/
Latitude / Longitude
Inclination (degrees)
Orbital Period (minutes)
Azimuth
Elevation
Range (km)
Doppler Factor

Next 0 passes for location: London (51.5072 / 0.1276)

Sorry there are no passes over London.
TIANLIAN 2-01